Regional Weather Roundup
Issued by NWS

Home | Current Version | Previous Version | Graphics & Text | Print | Product List | Glossary On
Versions: 1 2 3 4 5 6 7 8 9 10 11 12 13 14 15 16 17 18 19 20 21 22 23 24 25 26 27 28 29 30 31 32 33 34 35 36 37 38 39 40 41 42 43 44 45 46 47 48 49 50
832
ASUS45 KBOU 291007
RWRCO

WEATHER ROUNDUP FOR COLORADO
NATIONAL WEATHER SERVICE DENVER/BOULDER CO
400 AM MDT SUN MAY 29 2016

NOTE: "FAIR" INDICATES FEW OR NO CLOUDS BELOW 12000 FEET WITH NO
SIGNIFICANT WEATHER AND/OR OBSTRUCTIONS TO VISIBILITY.

COZ001>005-013-030-031-291100-
...NORTHWEST COLORADO...

CITY           SKY/WX    TMP DP  RH WIND       PRES   REMARKS
CRAIG          FAIR      35  32  88 W3        30.20S
HAYDEN         FAIR      41  34  75 E13       30.20F
MEEKER         FAIR      39  33  79 NE6       30.20S
MOUNT WERNER   NOT AVBL
STEAMBOAT SPGS FAIR      37  34  87 CALM      30.23S
WALDEN         NOT AVBL
$$

COZ006>008-011-291100-
...WEST CENTRAL VALLEYS...

CITY           SKY/WX    TMP DP  RH WIND       PRES   REMARKS
GRAND JUNCTION FAIR      52  36  54 S5        30.11S
MONTROSE       FAIR      48  33  56 SE3       30.18S
EAGLE          FAIR      37  36  93 CALM      30.29R
RIFLE          FAIR      43  34  70 CALM      30.18S
DELTA          FAIR      53  34  48 E6        30.16R
NUCLA          FAIR      48  32  53 SE7       30.19S
$$

COZ017>023-064>068-291100-
...SOUTHWEST COLORADO...

CITY           SKY/WX    TMP DP  RH WIND       PRES   REMARKS
DURANGO        FAIR      42  30  62 CALM      30.18S
CORTEZ         FAIR      38  30  73 SE3       30.13F
PAGOSA SPRINGS FAIR      43  30  61 CALM      30.25S
TELLURIDE      FAIR      41  27  58 CALM      30.33S
WOLF CREEK PAS MOCLDY    36  18  48 SW5       30.49S
$$

COZ009-010-012-014-032>034-037-058>063-291100-
...CENTRAL COLORADO...

CITY           SKY/WX    TMP DP  RH WIND       PRES   REMARKS
ASPEN          FAIR      36  29  75 SE3       30.27S
BUENA VISTA    FAIR      38  28  66 NW7       30.31S
COPPER MTN     NOT AVBL
BERTHOUD PASS  FAIR      30  19  64 W5        30.47S WCI  25
COTTONWOOD PAS FAIR      45  25  45 W6        30.37S
GUNNISON       FAIR      37  27  65 CALM      30.32R
KREMMLING      FAIR      32  32 100 CALM      30.31S
LEADVILLE      FAIR      26  22  84 CALM      30.37S
SALIDA         FAIR      41  32  70 NW6       30.37S
SUNLIGHT       FAIR      41  28  60 CALM      30.42S
WILKERSON PASS FAIR      36  27  69 SW3       30.46S
$$

COZ069>075-291100-
...SAN LUIS VALLEY/SANGRE DE CRISTO MOUNTAINS...

CITY           SKY/WX    TMP DP  RH WIND       PRES   REMARKS
ALAMOSA        FAIR      39  36  89 S3        30.27R
LA VETA PASS   MOCLDY    43  27  52 CALM      30.40S
SAGUACHE       MOCLDY    45  32  61 NW9       30.29S
$$

COZ035-036-038>040-291100-
...NORTHERN COLORADO FRONT RANGE...

CITY           SKY/WX    TMP DP  RH WIND       PRES   REMARKS
DENVER INTL AP FAIR      44  39  82 SE8       30.15R
DMNS CITY PARK   N/A     51  39  64 SE7G13    30.15R
AURORA         PTCLDY    48  40  73 S10       30.17R
FRONT RANGE AP NOT AVBL
ERIE MUNI ARPT FAIR      40  38  92 SW3       30.14S
BOULDER MUN AP FAIR      48  37  66 CALM      30.14S
CENTENNIAL     FAIR      47  38  71 S12       30.17S
BROOMFIELD     FAIR      50  36  57 N5        30.16S
FORT COLLINS   FAIR      48  41  76 N3        30.14S
LONGMONT       FAIR      42  36  79 CALM      30.16S
$$

COZ041-046-047-076>085-087-088-291100-
...PIKES PEAK/PALMER DIVIDE AND SOUTHERN FOOTHILLS...

CITY           SKY/WX    TMP DP  RH WIND       PRES   REMARKS
COLO. SPRINGS  FAIR      45  38  76 NE6       30.21S
A. F. ACADEMY  FAIR      39  36  87 N10       30.21F
SCHRIEVER AFB  NOT AVBL
ELLICOTT       FAIR     N/A N/A N/A E10       30.19S
FALCON         FAIR      47  37  69 CALM      30.24S
FORT CARSON    FAIR      46  38  74 N7        30.19R
LIMON          FAIR      40  39  97 N5        30.17S
MONUMENT HILL  FAIR      41  36  81 SW7       30.24S
TRINIDAD       FAIR      46  36  68 W13       30.18R
$$

COZ042>045-048>051-090-091-291100-
...NORTHEAST COLORADO...

CITY           SKY/WX    TMP DP  RH WIND       PRES   REMARKS
GREELEY ARPT   FAIR      43  39  87 CALM      30.13S
AKRON          FAIR      51  41  68 SW9       30.12R
BURLINGTON     FAIR      51  44  77 CALM      30.13R
WRAY           FAIR      50  45  81 E3        30.09S
STERLING       FAIR      45  45 100 CALM      30.10R
HOLYOKE        NOT AVBL
FORT MORGAN    FAIR      48  43  82 W7        30.13S
$$

COZ086-089-092>099-291100-
...SOUTHEAST COLORADO...

CITY           SKY/WX    TMP DP  RH WIND       PRES   REMARKS
PUEBLO         FAIR      49  45  86 W6        30.14F
LA JUNTA       FAIR      54  49  83 SE3       30.11S
LAMAR          FAIR      47  43  86 CALM      30.09R
SPRINGFIELD      N/A     50  45  83 SW7       30.13R
$$




USA.gov is the U.S. government's official web portal to all federal, state and local government web resources and services.